User: anonymous   Login
Location: Unspecified
(0.0000°N, 0.0000°E)
Time: 05:32:34
(UTC+00:00)
Language:

NANOSAT 1B - Orbit

View from above orbital plane
View from above orbital plane
View from above satellite
View from above satellite

Ground track
Ground track

The orbit data is extracted from the following two-line orbital elements,

1 35685U 09041E   18267.48321341 +.00000106 +00000-0 +19677-4 0  9992
2 35685 098.2845 263.5291 0058746 352.0051 008.0219 14.84125670495139
Epoch (UTC): 24 September 2018 11:35:49
Eccentricity: 0.0058746
inclination: 98.2845°
perigee height: 575 km
apogee height: 657 km
right ascension of ascending node: 263.5291°
argument of perigee: 352.0051°
revolutions per day: 14.84125670
mean anomaly at epoch: 8.0219°
orbit number at epoch: 49513

The dashed part of the orbit path shows where the satellite is in the earth's shadow,  

DLR